Regional Weather Roundup
Issued by NWS

Home | Current Version | Previous Version | Graphics & Text | Print | Product List | Glossary On
Versions: 1 2 3 4 5 6 7 8 9 10 11 12 13 14 15 16 17 18 19 20 21 22 23 24 25 26 27 28 29 30 31 32 33 34 35 36 37 38 39 40 41 42 43 44 45 46 47 48 49 50
000
ASUS45 KPSR 221110
RWRAZ

ARIZONA HOURLY REGIONAL WEATHER ROUNDUP
NATIONAL WEATHER SERVICE PHOENIX AZ
400 AM MST WED FEB 22 2017

NOTE: FAIR INDICATES FEW OR NO CLOUDS BELOW 12,000 FEET WITH NO
SIGNIFICANT WEATHER AND/OR OBSTRUCTIONS TO VISIBILITY.

AZZ001>003-036-221200-
NORTHWEST ARIZONA

CITY           SKY/WX    TMP DP  RH WIND       PRES   REMARKS
BULLHEAD CITY  CLOUDY    55  52  88 NW3       30.04F
KINGMAN        MOCLDY    51  36  56 SE6       30.08F
$$

AZZ004>008-015-016-018-221200-
NORTH CENTRAL ARIZONA

CITY           SKY/WX    TMP DP  RH WIND       PRES   REMARKS
GRAND CANYON   CLOUDY    42  41  96 S9        30.17
WILLIAMS       MOCLDY    43  37  81 SW16      30.17F
PRESCOTT       CLOUDY    47  43  86 SE3       30.15F
FLAGSTAFF      MOCLDY    39  38  96 SW5       30.19F
PAGE           MOCLDY    47  35  63 CALM      30.03F
$$

AZZ009>014-017-221200-
NORTHEAST ARIZONA

CITY           SKY/WX    TMP DP  RH WIND       PRES   REMARKS
WINSLOW        MOCLDY    40  38  93 SE5       30.13F
SAINT JOHNS    CLEAR     36  32  85 S7        30.16F WCI  30
SHOW LOW       CLEAR     45  34  65 S15       30.20F
$$

AZZ023-221200-
GREATER PHOENIX AREA

CITY           SKY/WX    TMP DP  RH WIND       PRES   REMARKS
PHOENIX        PTCLDY    57  53  86 E8        30.04F
BUCKEYE        CLEAR     54  54 100 CALM      30.06S
LUKE AFB       CLEAR     54  54 100 N3        30.05F
DEER VALLEY    CLEAR     54  52  93 CALM      30.06F
SCOTTSDALE     CLEAR     56  51  84 CALM      30.10F
MESA-GATEWAY   CLEAR     52  50  93 SE7       30.08F
$$

AZZ027-028-221200-
SOUTHWEST MARICOPA COUNTY AND PINAL COUNTY

CITY           SKY/WX    TMP DP  RH WIND       PRES   REMARKS
CASA GRANDE    NOT AVBL
GILA BEND      FAIR      55  52  88 NW5       30.04F
$$

AZZ503-504-507>509-221200-
SOUTHEAST ARIZONA

CITY           SKY/WX    TMP DP  RH WIND       PRES   REMARKS
TUCSON         CLEAR     52  44  74 SE9       30.12F
DAVIS-MONTHAN  CLEAR     51  44  78 SE9       30.11F
NOGALES        CLEAR     42  36  79 CALM      30.15F
SIERRA VISTA   CLEAR     46  39  76 S7        30.18F
DOUGLAS        CLEAR     39  34  82 NW6       30.16F WCI  35
SAFFORD        CLEAR     45  39  79 SE6       30.12F
$$

AZZ020-021-025-026-031-221200-
SOUTHWEST ARIZONA

CITY           SKY/WX    TMP DP  RH WIND       PRES   REMARKS
YUMA           CLEAR     59  54  83 CALM      30.03F
$$

CAZ031-033-041-043-047-048-061-221200-
SOUTHERN CALIFORNIA

CITY           SKY/WX    TMP DP  RH WIND       PRES   REMARKS
DOWNTOWN L.A.  PTCLDY    55  54  96 CALM      30.15F FOG
L.A. AIRPORT   PTCLDY    54  53  97 W8        30.15F
SAN DIEGO      CLOUDY    59  54  83 N5        30.16F
BURBANK        CLEAR     50  48  93 CALM      30.14F
ONTARIO        MOCLDY    52  49  89 CALM      30.14F
RIVERSIDE      MOCLDY    53  50  89 CALM      30.14F
PALM SPRINGS   CLEAR     57  50  77 CALM      30.04F
EL CENTRO NAS  PTCLDY    59  46  62 SW6       30.04F
IMPERIAL       PTCLDY    58  49  72 W6        30.02F
BLYTHE         CLOUDY    59  53  80 W7        30.02F
NEEDLES        CLOUDY    57  52  83 SW6       30.03F
$$

NVZ020-UTZ003-221200-
SOUTHERN NEVADA-UTAH

CITY           SKY/WX    TMP DP  RH WIND       PRES   REMARKS
LAS VEGAS      MOCLDY    57  35  43 S14G25    29.95F
SALT LAKE CITY CLOUDY    36  34  92 S5        30.04F WCI  32
$$

NMZ009-TXZ055-221200-
NEW MEXICO-WEST TEXAS

CITY           SKY/WX    TMP DP  RH WIND       PRES   REMARKS
ALBUQUERQUE    CLEAR     45  33  63 SE6       30.15S
EL PASO        CLEAR     56  31  38 SE3       30.12S
$$


........................KEY........................
SKY/WX - SKY CONDITION/WEATHER
TMP    - TEMPERATURE IN FAHRENHEIT
DP     - DEW POINT IN FAHRENHEIT
RH     - RELATIVE HUMIDITY IN PERCENT
WIND   - DIRECTION AND SPEED IN MILES PER HOUR (MPH)
VRB    - VARIABLE WIND DIRECTION
PRES   - MEAN SEA LEVEL PRESSURE IN INCHES OF MERCURY
         F - FALLING PRESSURE   R - RISING PRESSURE
         S - STEADY PRESSURE
VSB    - VISIBILITY IN MILES
HX     - HEAT INDEX IN FAHRENHEIT
WCI    - WIND CHILL INDEX IN FAHRENHEIT
TC     - TEMPERATURE IN CELSIUS WHICH IS ALSO KNOWN AS
         TEMPERATURE IN CENTIGRADE
AFB    - AIR FORCE BASE
         LUKE AFB IS LUKE AIR FORCE BASE
         DAVIS-MONTHAN IS DAVIS-MONTHAN AIR FORCE BASE
NAS    - NAVAL AIR STATION
         EL CENTRO NAS IS EL CENTRO NAVAL AIR STATION
N/A    - NOT AVAILABLE




USA.gov is the U.S. government's official web portal to all federal, state and local government web resources and services.